STARLINK-2449

operational
NORAD ID: 48112 Int'l Des: 2021-027 Owner: SPXS Country: US Constellation: starlink
LEOCIRCULARSTARLINK_TYPE

Über STARLINK-2449

Beschreibung wird geladen...

Live-Position

3D-Globus wird geladen...

Nächste Überflüge

Höhenverlauf

Altitude vs Time

uPlot chart will show altitude changes over time

Zweizeiliger Elementsatz

1 48112U 21027W 25252.22867239 .00000348 00000-0 42244-4 0 9998
2 48112 53.0535 271.3971 0001346 88.9479 271.1664 15.06395598244994
Epoch: 9. Sept. 2025 • Age: 10 hours

Aktueller Status

Höhe 548.5 km
Geschwindigkeit 7.59 km/s
Subsatellitenpunkt 31.12°N, 79.21°E
Startdatum 7. Apr. 2021
Alter 4.4 years
Typ internet

Technische Details

Klassifizierung Payload
Masse 260.00 kg
Trockenmasse 248.00 kg
Gesamtmasse 260.00 kg
Länge 0.20 m
Durchmesser 2.80 m
Spannweite 9.00 m
Form Box + pan
Hersteller SPXS
Bus-Typ Starlink
Phasenstatus In Orbit
Besitzer/Staat SPXS/US

Große Konstellationen

Loading constellations...